Starlink 35027

operational
NORAD ID: 65466 Int'l Des: 2025-195 Owner: SPXS Country: US Constellation: starlink
LEOCIRCULAR

Über Starlink 35027

Beschreibung wird geladen...

Live-Position

3D-Globus wird geladen...

Nächste Überflüge

Höhenverlauf

Altitude vs Time

uPlot chart will show altitude changes over time

Zweizeiliger Elementsatz

1 65466U 25195J 25294.41212546 .00082854 00000-0 20565-2 0 9993
2 65466 53.1596 186.9627 0001202 63.5783 296.5345 15.39655552 8642
Epoch: 21. Okt. 2025 • Age: 12 hours

Aktueller Status

Höhe 447.8 km
Geschwindigkeit 7.65 km/s
Subsatellitenpunkt 24.91°N, 7.68°W
Startdatum 3. Sept. 2025
Alter 0.1 years
Typ internet

Technische Details

Klassifizierung Payload
Masse 575.00 kg
Trockenmasse 530.00 kg
Gesamtmasse 575.00 kg
Länge 0.30 m
Durchmesser 4.10 m
Spannweite 29.00 m
Form Box + pan
Hersteller SPXS
Bus-Typ Starlink V2MO
Phasenstatus In Orbit
Besitzer/Staat SPXS/US

Große Konstellationen

Loading constellations...